Regional Weather Roundup
Issued by NWS

Home | Current Version | Previous Version | Text Only | Print | Product List | Glossary On
Versions: 1 2 3 4 5 6 7 8 9 10 11 12 13 14 15 16 17 18 19 20 21 22 23 24 25 26 27 28 29 30 31 32 33 34 35 36 37 38 39 40 41 42 43 44 45 46 47 48 49 50
000
ASUS45 KABQ 271510
RWRNM
WEATHER ROUNDUP FOR NEW MEXICO
NATIONAL WEATHER SERVICE ALBUQUERQUE NM
900 AM MDT FRI MAR 27 2015

NOTE: "FAIR" MEANS FEW OR NO CLOUDS BELOW 12,000 FEET AGL WITH NO
       SIGNIFICANT WEATHER OR OBSTRUCTIONS TO VISION.

      THIS PRODUCT IS RELEASED AS TWO VERSIONS.  ONE VERSION NEAR
      THE TOP OF THE HOUR CONTAINING PRELIMINARY DATA FROM ALBUQUERQUE
      AND OTHER STATIONS.  A FINAL VERSION WITH ADDITIONAL DATA IS
      ISSUED ABOUT 10 MINUTES AFTER THE HOUR.

NMZ501-503-504-510>518-271600-
NORTHWEST PLATEAU/NORTHCENTRAL MOUNTAINS

CITY           SKY/WX    TMP DP  RH WIND       PRES   REMARKS
FARMINGTON     SUNNY     41  20  43 E10       30.32S
LOS ALAMOS     SUNNY     47  20  34 CALM      30.36R
SANTA FE       MOSUNNY   49  18  29 N9        30.32R
TAOS           SUNNY     39  21  48 CALM      30.35R
ANGEL FIRE     FAIR      38  25  60 CALM      30.37R

$$
NMZ402-403-502-505>509-271600-
WESTCENTRAL MOUNTAINS/SOUTHWEST MOUNTAINS

CITY           SKY/WX    TMP DP  RH WIND       PRES   REMARKS
GALLUP         SUNNY     39  16  39 NE3       30.38S
GRANTS         SUNNY     39  16  38 N5        30.39R
SILVER CITY    SUNNY     52  21  30 NW6       30.33R

$$
NMZ407-409-411-412-271600-
SOUTHERN DESERTS

CITY           SKY/WX    TMP DP  RH WIND       PRES   REMARKS
LORDSBURG      FAIR      45  27  49 CALM      30.30R
DEMING         SUNNY     49  24  37 E5        30.30R
LAS CRUCES     SUNNY     56  24  29 CALM      30.31R
HOLLOMAN AFB   MOSUNNY   52  24  33 CALM      30.29R
ALAMOGORDO     MOSUNNY   50  25  37 CALM      30.30R
T OR C         SUNNY     55  22  27 NE3       30.30R

$$
NMZ519>523-271600-
CENTRAL VALLEYS/CENTRAL HIGHLANDS

CITY           SKY/WX    TMP DP  RH WIND       PRES   REMARKS
ALBUQUERQUE    MOSUNNY   51  22  31 W3        30.32S
DOUBLE EAGLE   MOSUNNY   50  18  27 CALM      30.34R
MORIARTY ARPT  FAIR      47  18  30 NE7       30.32S
CLINES CORNERS MOSUNNY   50  17  27 NW15      30.29R
BELEN          FAIR      51  19  29 CALM      30.33R
SOCORRO        FAIR      47  20  33 CALM      30.31S

$$
NMZ524>526-539-540-271600-
SOUTHCENTRAL MOUNTAINS

CITY           SKY/WX    TMP DP  RH WIND       PRES   REMARKS
RUIDOSO        SUNNY     54  16  22 NW13G21   30.35R

$$
NMZ527>531-271600-
NORTHEAST HIGHLANDS/NORTHEAST PLAINS

CITY           SKY/WX    TMP DP  RH WIND       PRES   REMARKS
LAS VEGAS      SUNNY     52  22  30 N7        30.28R
RATON          SUNNY     42  26  53 NE6       30.25R
CLAYTON        SUNNY     50  26  39 SE6       30.22R

$$
NMZ532>537-271600-
EASTCENTRAL PLAINS

CITY           SKY/WX    TMP DP  RH WIND       PRES   REMARKS
TUCUMCARI      SUNNY     51  23  33 NW6       30.21R
CANNON AFB     NOT AVBL
CLOVIS AIRPORT SUNNY     52  27  37 N9        30.21R

$$
NMZ028-029-538-271600-
SOUTHEAST PLAINS

CITY           SKY/WX    TMP DP  RH WIND       PRES   REMARKS
ROSWELL        MOSUNNY   48  29  47 CALM      30.23R
ARTESIA        SUNNY     52  30  43 CALM      30.23S
CARLSBAD       SUNNY     51  34  52 CALM      30.21R
HOBBS          SUNNY     55  28  35 S9        30.22R


$$



USA.gov is the U.S. government's official web portal to all federal, state and local government web resources and services.